Location: Prague
(50.0830°N, 14.4670°E)
Time: 23:58:46
(UTC+02:00)

SPROUT - Visible Passes

Search period start: 30 May 2024 00:00
Search period end: 09 June 2024 00:00
Orbit: 432 x 444 km, 98.0° (Epoch: 30 May)

Date Brightness Start Highest point End Pass type
(mag) Time Alt. Az. Time Alt. Az. Time Alt. Az.
30 May ? 03:43:40 10° SSE 03:46:59 64° ENE 03:50:21 10° N visible
31 May ? 03:05:54 10° ESE 03:08:37 23° ENE 03:11:21 10° NNE visible
01 Jun ? 03:58:45 10° SSE 04:02:07 84° WSW 04:05:29 10° NNW visible
02 Jun ? 03:20:15 10° SE 03:23:15 32° ENE 03:26:17 10° N visible
03 Jun ? 02:42:49 10° E 02:44:25 13° ENE 02:46:02 10° NNE visible
04 Jun ? 03:33:55 10° SE 03:37:06 45° ENE 03:40:19 10° N visible
05 Jun ? 02:55:34 10° ESE 02:57:48 17° ENE 03:00:02 10° NNE visible
06 Jun ? 03:46:52 10° SSE 03:50:08 64° ENE 03:53:27 10° N visible
07 Jun ? 03:07:46 10° ESE 03:10:22 22° ENE 03:12:59 10° NNE visible
08 Jun ? 03:59:04 10° SSE 04:02:22 89° ENE 04:05:41 10° NNW visible
